Weather History for Northolt, United Kingdom

Change the Weather History Date:

Tuesday, September 24, 2013

  Actual Average Record
Temperature  
Mean Temperature 58 °F -  
Max Temperature 72 °F 60 °F 73 °F (2006)
Min Temperature 45 °F 47 °F 35 °F (2003)
Degree Days  
Heating Degree Days 6    
Growing Degree Days 8 (Base 50)    
Moisture  
Dew Point 54 °F    
Average Humidity 87    
Maximum Humidity 100    
Minimum Humidity 55    
Precipitation  
Precipitation 0.00 in - - ()
Sea Level Pressure  
Sea Level Pressure 30.01 in    
Wind  
Wind Speed 2 mph ()    
Max Wind Speed 6 mph    
Max Gust Speed -    
Visibility 2.9 miles    
Events Fog    
Averages and records for this station are not official NWS values.
T = Trace of Precipitation, MM = Missing Value Source: Averaged Metar Reports

Daily Weather History Graph

Daily Weather History Graph

Search for Another Location

Airport:

Trip Planner

Search our weather history database for the weather conditions in past years. The results will help you decide how hot, cold, wet, or windy it might be!

Date:

Astronomy

Sep. 24, 2013 Rise Set
Actual Time 6:51 AM BST 6:55 PM BST
Civil Twilight 6:17 AM BST 7:28 PM BST
Nautical Twilight 5:38 AM BST 8:07 PM BST
Astronomical Twilight 4:57 AM BST 8:48 PM BST
Moon 9:25 PM BST (9/24) 12:27 PM BST (9/24)
Length of Visible Light 13h 10m
Length of Day
12h 04m
Waning Gibbous, 75% of the Moon is Illuminated
Sep 24
Waning Gibbous
Sep 27
Last Quarter
Oct 5
New
Oct 12
First Quarter
Oct 19
Full

Hourly Weather History & Observations

Time (BST) Temp. Dew Point Humidity Pressure Visibility Wind Dir Wind Speed Gust Speed Precip Events Conditions
12:50 AM 51 °F 50 °F 93% 30.13 in 2 mi North 1.2 mph - -  
12:50 AM 51.8 °F 50.0 °F 94% 30.12 in - North 1.2 mph - N/A   Unknown
1:50 AM 50.0 °F 48.2 °F 94% 30.09 in 1.6 mi NE 1.2 mph - N/A   Unknown
2:50 AM 48.2 °F 48.2 °F 100% 30.09 in - NNW 1.2 mph - N/A   Unknown
3:50 AM 46.4 °F 46.4 °F 100% 30.06 in 0.2 mi NNE 1.2 mph - N/A   Unknown
4:50 AM 46.4 °F 46.4 °F 100% 30.06 in 4.3 mi South 1.2 mph - N/A   Unknown
5:50 AM 46.4 °F 44.6 °F 93% 30.04 in 0.2 mi Calm Calm - N/A   Partly Cloudy
6:50 AM 48 °F 47 °F 94% 30.06 in 0 mi NE 1.2 mph - - Fog Heavy Fog
6:50 AM 48.2 °F 46.4 °F 93% 30.04 in 0.1 mi NE 1.2 mph - N/A Fog Fog
7:50 AM 48.2 °F 48.2 °F 100% 30.04 in 0.1 mi NE 2.3 mph - N/A Fog Fog
8:50 AM 51.8 °F 50.0 °F 94% 30.04 in 0.1 mi NE 2.3 mph - N/A Fog Fog
9:50 AM 55 °F 54 °F 96% 30.03 in 0 mi East 3.5 mph - - Fog Partial Fog
9:50 AM 55.4 °F 53.6 °F 94% 30.01 in 0.2 mi East 3.5 mph - N/A Fog Fog
10:36 AM 57.2 °F 55.4 °F 94% 30.01 in 0.6 mi East 3.5 mph - N/A Fog Patches of Fog
10:50 AM 57.2 °F 55.4 °F 94% 30.01 in 1.2 mi SE 2.3 mph - N/A   Overcast
11:13 AM 57.2 °F 57.2 °F 100% 30.01 in 2.5 mi WSW 1.2 mph - N/A   Overcast
11:50 AM 57.2 °F 57.2 °F 100% 30.01 in 2.5 mi NW 3.5 mph - N/A   Overcast
12:30 PM 59.0 °F 57.2 °F 94% 30.01 in 3.1 mi WNW 3.5 mph - N/A   Haze
12:43 PM 60.8 °F 57.2 °F 88% 30.01 in 3.1 mi NW 3.5 mph - N/A   Haze
12:50 PM 61 °F 57 °F 84% 30.02 in 4 mi NNW 3.5 mph - -   Haze
12:50 PM 60.8 °F 57.2 °F 88% 30.01 in 4.3 mi NNW 3.5 mph - N/A   Haze
1:20 PM 68.0 °F 57.2 °F 68% 30.01 in 5.0 mi East 2.3 mph - N/A   Haze
1:50 PM 69.8 °F 59.0 °F 68% 29.98 in 5.0 mi WSW 2.3 mph - N/A   Haze
2:50 PM 69.8 °F 59.0 °F 68% 29.98 in 5.0 mi WSW 4.6 mph - N/A   Haze
3:50 PM 71 °F 58 °F 55% 29.98 in 6 mi WNW 4.6 mph - -   Scattered Clouds
3:50 PM 71.6 °F 59.0 °F 64% 29.98 in 6.2 mi WNW 4.6 mph - N/A   Scattered Clouds
4:50 PM 71.6 °F 59.0 °F 64% 29.95 in 6.2 mi NW 4.6 mph - N/A   Scattered Clouds
5:50 PM 68.0 °F 57.2 °F 68% 29.95 in 6.2 mi WNW 2.3 mph - N/A   Scattered Clouds
6:50 PM 65 °F 58 °F 73% 29.95 in 7 mi NW 1.2 mph - -   Scattered Clouds
6:50 PM 64.4 °F 59.0 °F 83% 29.95 in 6.2 mi NW 1.2 mph - N/A   Mostly Cloudy
7:50 PM 60.8 °F 57.2 °F 88% 29.95 in - NE 4.6 mph - N/A   Clear
8:50 PM 60.8 °F 57.2 °F 88% 29.95 in 3.7 mi East 5.8 mph - N/A   Haze
9:50 PM 58 °F 56 °F 92% 29.96 in 2 mi East 2.3 mph - -   Haze
9:50 PM 59.0 °F 57.2 °F 94% 29.95 in 2.5 mi East 2.3 mph - N/A   Haze
10:50 PM 57.2 °F 53.6 °F 88% 29.95 in 2.5 mi East 3.5 mph - N/A   Haze
11:50 PM 55.4 °F 53.6 °F 94% 29.92 in - North 1.2 mph - N/A   Mostly Cloudy